Regional Weather Roundup
Issued by NWS Albany, NY

Home | Current Version | Previous Version | Text Only | Print | Product List | Glossary On
Versions: 1 2 3 4 5 6 7 8 9 10 11 12 13 14 15 16 17 18 19 20 21 22 23 24 25 26 27 28 29 30 31 32 33 34 35 36 37 38 39 40 41 42 43 44 45 46 47 48 49
000
ASUS41 KALY 011010
RWRALY

NEW YORK STATE HOURLY WEATHER ROUNDUP
NATIONAL WEATHER SERVICE ALBANY NY
600 AM EDT WED OCT 01 2014

NOTE: "FAIR" INDICATES FEW OR NO CLOUDS BELOW 12,000 FEET WITH NO
SIGNIFICANT WEATHER AND/OR NO OBSTRUCTIONS TO VISIBILITY.

NYZ032-033-038>043-046>054-057>066-NYZ062>081-011100-
EAST


CITY           SKY/WX    TMP DP  RH WIND       PRES   REMARKS
ALBANY         LGT RAIN  60  56  86 N3        30.03S
GLENS FALLS    CLOUDY    60  56  86 E5        30.04R
POUGHKEEPSIE   CLOUDY    60  55  83 CALM      30.01S
NEWBURGH       CLOUDY    59  57  94 NE6       30.02S
MONTGOMERY     CLOUDY    58  56  93 CALM      30.01S
WHITE PLAINS   LGT RAIN  59  56  89 N5        30.00R
ISLIP          DRIZZLE   60  58  92 NE9       29.97R FOG
NEW YORK CITY  CLOUDY    62  57  83 N8        29.99R
CENTRAL PARK   CLOUDY    63  56  78 CALM      30.02S
$$

NYZ005>009-017-018-044>046-055-056-011100-
CENTRAL


CITY           SKY/WX    TMP DP  RH WIND       PRES   REMARKS
FULTON         MOCLDY    57  55  93 CALM      30.02R FOG
SYRACUSE       CLOUDY    58  56  93 E5        30.01R FOG
ROME           CLOUDY    58  56  93 E6        30.04R
ELMIRA         CLOUDY    58  58 100 SW5       30.00S FOG
BINGHAMTON     CLOUDY    58  57  97 E5        30.02S FOG
MONTICELLO     MOCLDY    54  52  94 NE3       30.04S
$$

NYZ026>034-041>043-011100-
NORTH


CITY           SKY/WX    TMP DP  RH WIND       PRES   REMARKS
WATERTOWN      CLOUDY    55  51  86 NE10      30.05R FOG
FORT DRUM      NOT AVBL
MASSENA        CLOUDY    54  52  93 NE12      30.10R
SARANAC LAKE   FOG       51  51 100 N3        30.06R VSB 1/4
PLATTSBURGH    CLOUDY    52  50  93 N8        30.09R
$$

NYZ001>004-010>016-019>021-011100-
WEST


CITY           SKY/WX    TMP DP  RH WIND       PRES   REMARKS
NIAGARA FALLS  CLOUDY    58  56  93 NE7       30.02S FOG
BUFFALO        CLOUDY    58  56  93 NE7       30.02R FOG
DUNKIRK        CLOUDY    57  57 100 NE7       30.01R FOG
JAMESTOWN      CLOUDY    55  54  94 N3        30.02R VSB 1/4
WELLSVILLE     CLOUDY    55  53  93 E3        30.04R
ROCHESTER      CLOUDY    61  59  93 N7        30.02R FOG
PENN YAN       CLOUDY    58  32  37 CALM      30.03R FOG
$$

             KEY
       WCI = WIND CHILL INDEX
       VSB = VISIBILITY
       HX  = HEAT INDEX
$$



USA.gov is the U.S. government's official web portal to all federal, state and local government web resources and services.